EHI
7 6 4 2 1 2 2 1 1 2 3 4 6 5 3 2 1 0 0 1 2 1 0 0 0 0 0 0 0 0 0 0 0 0 0 0 0 0 0 0 0 0 0
8 6 4 4 3 2 2 1 1 2 3 4 4 4 3 1 0 0 0 1 1 1 0 1 1 0 0 0 0 0 0 0 0 0 0 0 0 0 0 0 0 0 0
8 5 4 4 4 2 1 1 0 1 1 2 2 2 2 1 0 0 0 0 0 0 1 2 2 0 0 0 0 0 0 0 0 0 0 0 0 0 0 0 0 0 0
5 3 3 4 3 1 0 0 0 0 0 0 0 1 1 0 0 0 0 0 0 0 0 1 1 0 0 0 0 0 0 0 0 0 0 0 0 0 0 0 0 0 0
3 3 3 3 2 0 0 0 0 0 0 0 0 0 0 0 0 0 0 0 0 0 0 0 0 0 0 0 0 0 0 0 0 0 0 0 0 1 0 0 0 1 1
3 3 4 3 1 0 0 0 0 0 0 0 0 0 0 0 0 0 0 0 0 0 0 0 0 0 0 0 0 0 0 0 0 0 0 0 1 1 0 0 0 0 0
3 3 3 3 1 0 0 0 0 0 0 0 0 0 0 0 0 0 0 0 0 0 0 0 0 0 0 0 0 0 1 0 0 0 0 1 1 1 0 0 0 0 0
2 1 1 1 1 0 0 0 0 0 0 0 0 0 0 0 0 0 0 0 0 0 0 0 0 0 0 0 0 0 1 1 0 0 0 1 2 1 0 0 0 0 0
1 0 0 0 0 0 0 0 0 0 0 0 0 0 0 0 0 0 0 0 0 0 0 0 0 0 0 1 1 1 2 2 1 0 0 1 2 1 0 0 0 0 0
0 0 0 0 0 0 0 0 0 0 0 0 0 0 0 0 0 0 0 0 0 0 0 0 0 0 0 1 2 2 2 2 1 0 0 1 2 1 0 0 0 0 0
0 0 0 0 0 0 0 0 0 0 0 0 0 0 0 0 0 0 0 0 0 0 0 0 0 0 0 1 1 1 1 1 0 0 1 3 3 1 0 0 0 0 0
0 0 0 0 0 0 0 0 0 0 0 0 0 0 0 0 0 0 0 0 0 0 0 0 0 0 0 0 0 0 0 0 0 0 2 4 4 2 1 0 0 0 0
0 0 0 0 0 0 0 0 0 0 0 0 0 0 0 0 0 0 0 0 0 0 0 0 0 0 0 0 0 0 0 0 0 0 2 5 5 3 1 0 0 0 0
0 0 0 0 0 0 0 0 0 0 0 0 0 0 0 0 0 0 0 0 0 0 0 0 0 0 0 0 0 0 0 0 0 0 1 4 5 4 2 1 0 0 0
0 0 0 0 0 0 0 0 0 0 0 0 0 0 0 0 0 0 0 0 0 0 0 0 0 0 0 0 0 0 1 0 0 0 1 2 3 3 3 2 1 0 0
0 0 0 0 0 0 0 0 0 0 0 0 0 0 0 0 0 0 0 0 0 0 0 0 0 0 0 0 0 0 0 0 0 0 0 1 1 1 3 3 2 0 0
0 0 0 0 0 0 0 0 0 0 0 0 0 0 0 0 0 0 0 0 0 0 0 0 0 0 0 0 0 0 0 0 0 0 0 0 0 1 2 4 4 2 0
0 0 0 0 0 0 0 0 0 0 0 0 0 0 0 0 0 0 0 0 0 0 0 0 0 0 0 0 0 0 0 0 0 0 0 0 0 0 1 4 5 3 1
0 0 0 0 0 0 1 1 1 0 0 0 0 0 0 0 0 0 0 0 0 0 0 0 0 0 0 0 0 0 0 0 0 0 0 0 0 0 0 2 3 3 1
0 0 0 0 1 1 1 2 2 1 0 0 0 0 0 0 0 0 0 0 0 0 0 0 0 0 0 0 0 0 0 0 1 0 0 0 0 0 0 0 1 1 1
0 0 0 0 1 2 2 2 2 1 0 0 0 0 0 0 0 0 0 0 0 0 0 0 0 0 0 0 0 0 0 0 0 0 0 0 0 0 0 0 0 0 0
0 0 0 0 1 1 1 1 1 1 0 0 0 0 0 0 0 0 0 0 0 0 0 0 0 0 0 0 0 0 0 0 0 0 0 0 0 0 0 0 0 0 0
0 0 0 0 0 0 0 0 0 0 0 0 0 0 0 0 0 0 0 0 0 0 0 0 0 0 0 0 0 0 0 0 0 0 0 0 0 0 0 0 0 0 0
0 0 0 0 0 0 0 0 0 0 0 0 0 0 0 0 0 0 0 0 0 0 0 0 0 0 0 0 0 0 0 0 0 0 0 0 0 0 0 0 0 0 0
0 0 0 0 0 0 0 0 0 0 0 0 0 0 0 0 0 0 0 0 0 0 0 0 0 0 0 0 0 0 0 0 0 0 0 0 0 0 1 1 1 0 0
0 0 0 0 0 0 0 0 0 0 0 0 0 0 0 0 0 0 0 0 0 0 0 0 0 0 0 0 0 0 0 0 0 0 0 0 0 1 2 2 1 0 0
Wind_Speed
9 11 11 11 11 11 11 11 10 10 10 9 9 8 8 7 7 7 7 7 7 7 7 7 7 7 7 7 7 7 6 6 6 6 5 5 4 5 6 6 6 4 6
12 12 12 12 12 11 11 11 11 11 10 9 9 8 8 7 7 7 7 7 6 6 6 6 6 6 6 6 6 6 6 6 6 6 5 4 2 3 5 6 7 4 6
13 12 11 12 12 11 11 11 11 10 10 9 8 8 7 7 6 6 6 6 6 6 5 6 6 6 6 5 6 6 6 6 6 7 7 3 0 4 5 6 6 6 5
13 11 11 12 11 11 11 11 11 10 10 9 8 8 7 7 6 5 5 5 5 5 5 5 5 6 6 5 5 5 6 6 7 8 4 2 2 6 6 6 6 6 5
13 12 12 12 12 11 11 11 10 10 9 9 8 8 7 6 6 6 5 5 4 4 5 5 5 5 5 5 5 5 6 7 8 6 3 2 3 5 5 5 6 6 5
13 12 11 12 12 11 11 10 10 9 9 8 8 7 7 6 6 5 5 5 5 4 4 5 5 5 5 5 5 5 6 7 8 4 2 2 3 4 5 5 5 5 5
12 12 11 12 11 11 10 10 9 8 8 7 7 6 6 5 5 4 4 4 5 5 4 4 4 4 5 4 5 5 6 7 6 3 1 2 4 5 5 4 4 4 5
11 11 11 12 12 11 10 9 8 7 6 6 5 4 4 3 3 3 3 4 4 4 4 4 4 4 4 4 4 5 5 7 6 4 1 3 6 5 4 4 4 4 4
10 10 9 9 10 10 10 9 7 6 5 4 3 1 0 1 1 0 1 2 3 3 4 4 4 4 4 4 5 5 5 6 5 3 2 3 6 5 4 3 3 3 4
7 7 8 8 8 8 7 8 7 6 5 4 3 4 4 5 5 4 3 2 1 2 3 4 4 4 5 6 6 6 6 6 4 2 1 4 7 5 4 3 3 3 4
6 5 6 6 6 6 7 8 7 7 6 5 5 7 6 4 3 4 4 4 2 3 4 4 6 6 7 8 9 8 6 3 2 0 2 5 6 5 3 3 3 3 4
5 5 4 4 4 4 4 5 4 4 4 4 2 3 2 1 1 1 4 5 5 6 7 7 9 8 7 4 5 7 3 3 1 1 3 6 5 4 3 2 2 3 3
5 4 4 3 3 2 2 2 1 1 2 1 2 1 1 1 1 1 1 2 3 5 3 4 5 4 3 2 2 2 2 1 1 1 3 6 5 3 2 2 2 3 3
6 4 4 3 3 2 3 1 1 1 1 1 2 3 2 1 2 2 1 1 1 1 1 1 2 3 3 2 1 1 0 1 1 2 3 5 4 3 2 2 3 4 3
7 4 3 2 2 3 2 0 2 2 2 2 2 3 2 1 2 2 1 1 2 2 1 1 2 2 2 3 3 2 2 1 0 1 2 4 4 3 3 2 3 4 4
7 5 3 2 2 2 2 1 2 2 1 2 2 3 2 2 2 2 2 2 2 2 2 2 2 2 2 1 2 2 2 2 0 1 2 3 4 4 3 3 4 5 5
7 6 4 2 2 2 3 3 2 1 2 2 2 3 3 2 2 3 2 2 2 2 3 3 3 2 2 1 1 1 1 2 1 1 2 2 2 4 4 4 4 5 6
6 7 5 3 2 3 4 2 2 2 3 2 2 2 4 4 4 3 2 2 2 2 2 2 2 2 2 2 2 1 0 1 1 1 1 2 2 2 3 4 4 5 6
5 6 6 5 3 4 3 1 2 3 2 2 2 3 4 5 4 3 2 2 3 2 2 3 2 2 2 2 2 1 1 0 0 1 1 1 2 3 3 4 5 5 5
5 5 5 5 4 4 2 1 2 3 2 2 2 3 3 3 4 3 2 3 3 2 3 3 3 2 1 2 3 2 1 1 1 0 1 1 1 2 3 3 3 3 5
4 4 5 5 4 4 2 1 2 1 1 1 2 3 2 3 4 3 2 2 2 2 3 3 2 3 2 1 1 2 2 0 1 1 0 1 1 2 2 2 2 2 3
5 4 5 5 5 4 2 1 1 1 1 1 1 2 2 3 4 4 3 2 2 1 2 3 2 2 2 2 1 1 1 2 2 0 1 1 0 1 2 2 2 3 3
5 4 4 4 5 5 3 2 2 1 1 1 0 1 1 1 1 2 4 3 3 2 1 2 2 1 2 2 1 1 0 0 1 1 0 1 1 1 1 1 2 2 3
5 5 5 5 5 5 4 2 1 1 0 0 0 1 0 1 0 1 2 3 3 2 2 2 2 1 1 2 2 1 1 1 1 1 2 1 1 1 1 1 1 2 3
6 5 4 4 4 4 3 3 1 0 0 1 1 1 1 0 0 0 1 2 2 1 1 2 2 2 1 1 1 1 2 1 1 1 1 1 1 0 1 1 1 1 2
5 5 4 4 4 4 3 3 3 2 1 0 0 1 2 1 0 0 0 1 2 2 1 2 2 1 1 1 1 1 1 0 1 0 1 1 0 0 1 1 1 1 2
Wind_Direction
109 111 111 104 100 96 93 89 88 87 84 82 81 80 75 69 63 62 61 57 51 47 40 34 35 32 27 23 22 19 17 14 10 7 2 8 21 24 22 19 18 28 40
114 113 111 105 101 98 94 90 86 84 83 81 79 78 75 70 67 63 57 52 47 44 39 31 26 23 21 20 18 13 10 3 355 345 333 334 13 32 29 30 31 28 32
112 115 111 105 101 98 94 90 87 84 81 80 77 75 73 70 68 61 53 44 39 39 34 25 19 13 10 13 11 7 0 350 337 328 317 299 88 65 48 38 31 29 39
114 114 108 105 101 98 94 90 87 84 80 77 74 71 70 69 66 60 51 43 37 34 27 22 15 6 3 5 5 360 350 338 327 322 316 344 62 73 53 39 31 35 44
109 107 108 107 103 99 96 92 88 85 82 77 73 68 68 68 64 59 53 47 37 31 28 23 17 7 360 359 358 351 341 330 320 313 314 39 73 75 57 42 35 38 43
108 109 111 108 105 102 98 93 89 86 83 77 71 64 60 59 57 53 46 41 33 28 28 23 14 6 2 358 352 346 337 328 314 301 325 71 90 80 63 47 42 40 47
113 115 118 114 111 107 102 97 91 86 82 75 68 59 53 51 51 48 40 36 31 26 19 12 2 359 358 355 347 339 330 323 295 289 299 90 102 91 66 48 44 42 46
118 120 123 125 121 117 111 104 97 91 85 78 71 63 53 47 45 42 44 38 29 21 10 2 348 340 340 339 331 322 319 313 315 321 320 106 110 97 73 49 42 45 47
122 128 135 139 135 130 124 118 113 109 104 104 106 115 247 269 259 159 87 42 17 359 345 341 335 323 314 308 300 299 301 301 303 294 316 98 110 98 79 58 47 52 52
123 128 137 141 142 145 142 138 140 145 154 172 193 218 237 250 236 218 185 125 352 325 316 316 315 305 290 282 278 278 285 293 268 278 40 104 106 97 82 69 68 70 62
115 123 128 131 136 150 154 151 166 175 189 202 211 229 240 245 215 196 149 152 212 259 276 279 282 280 276 268 259 258 268 253 258 123 78 101 106 99 86 78 84 92 76
127 121 114 120 133 142 131 143 179 174 176 206 181 195 224 274 342 59 145 191 223 243 256 253 261 269 264 249 238 235 244 243 256 126 115 121 110 98 91 90 106 110 91
110 97 102 109 105 111 119 132 161 155 153 142 39 39 11 9 337 94 162 190 231 241 249 244 253 252 254 242 206 208 233 244 120 89 110 116 110 103 106 111 134 131 106
111 103 100 102 112 99 91 110 157 84 74 76 26 8 41 33 337 15 354 33 341 327 316 291 279 289 296 306 293 252 264 54 89 105 130 129 124 127 136 141 147 149 129
124 123 112 111 109 101 87 21 78 65 29 60 47 349 21 37 348 8 350 16 333 333 329 311 298 306 314 322 327 347 12 348 134 115 129 145 147 149 157 164 157 155 151
132 134 126 112 97 111 117 93 75 84 101 61 46 333 8 37 357 9 3 9 343 333 328 309 300 313 310 314 329 330 323 303 150 139 151 162 168 164 172 180 169 160 157
144 139 129 116 87 74 72 54 60 59 61 60 57 354 12 24 1 33 11 355 337 339 340 337 336 328 324 322 309 296 306 322 324 209 167 169 169 170 172 178 178 167 164
143 133 128 115 95 76 68 46 34 56 52 53 59 24 7 13 22 30 4 343 339 351 348 328 323 334 338 335 333 309 278 288 292 276 191 168 163 157 165 177 173 165 160
132 131 132 120 102 84 76 82 49 57 49 44 51 39 12 3 11 27 357 337 356 5 346 333 352 346 339 329 302 276 258 196 295 295 282 147 150 150 157 175 168 159 163
136 134 125 114 103 99 99 67 62 51 25 55 57 51 23 359 14 9 347 4 5 4 347 334 329 330 315 309 316 325 282 180 146 338 318 107 142 157 149 157 156 157 161
139 130 118 118 114 106 87 62 64 55 1 48 60 54 21 16 18 355 352 358 8 6 336 329 339 337 324 321 337 325 322 82 145 147 110 59 139 137 135 151 157 149 150
142 132 124 122 119 109 102 98 107 81 352 70 54 49 23 31 18 351 360 357 359 342 342 340 347 345 323 326 324 336 348 356 347 126 135 148 85 121 143 157 148 141 137
140 130 127 131 122 117 125 101 74 66 346 31 53 79 36 43 21 351 351 349 334 346 350 326 330 347 319 320 355 90 92 303 328 337 88 130 136 128 127 121 135 141 137
141 134 142 138 131 132 136 122 125 132 246 38 66 127 229 187 167 12 350 342 336 352 347 325 10 337 321 319 322 318 205 170 150 342 342 9 110 128 122 115 95 101 114
144 143 148 139 133 134 137 138 178 124 330 36 35 13 291 189 108 86 350 326 321 336 348 333 341 334 334 327 323 334 334 328 235 157 257 312 353 33 109 103 103 96 113
132 135 142 138 130 132 155 169 175 152 138 6 304 300 302 270 238 9 346 331 331 343 346 339 334 318 323 328 328 324 317 328 320 333 215 230 255 316 91 114 133 137 137